period_start,C,m1,H,J0,J1,J2,J3,J4,J5,JA,JB,JC,JD,JJ,JK,JN,#
2014-02-21 00:00:24,0.49,9.07,0.33,17.84,23.04,25.86,6.17,33.58,1018.04,2053.02,1332.49,1689.22,1833.91,350.07,330.23,31.83,0000 0000 0000 0000 000000
2014-02-21 00:01:24,0.61,9.08,0.00,17.84,23.05,25.87,6.13,33.67,1018.08,2053.02,1332.18,1689.08,1833.40,349.90,330.08,31.83,0000 0000 0000 0000 000000
2014-02-21 00:02:25,0.49,9.08,0.00,17.86,23.06,25.88,6.14,33.42,1018.07,2053.03,1331.96,1688.83,1833.14,349.68,329.86,31.84,0000 0000 0000 0000 000000
2014-02-21 00:03:25,0.34,9.08,0.00,17.87,23.07,25.89,6.21,33.88,1018.08,2053.02,1331.45,1688.34,1832.89,349.89,330.06,31.84,0000 0000 0000 0000 000000
2014-02-21 00:04:25,0.72,9.09,0.00,17.87,23.07,25.89,6.13,33.42,1018.08,2053.01,1331.15,1688.12,1832.41,349.98,330.14,31.85,0000 0000 0000 0000 000000
2014-02-21 00:05:26,0.47,9.09,0.00,17.87,23.07,25.91,6.28,33.79,1018.09,2053.01,1330.91,1687.88,1832.15,350.41,330.79,31.85,0000 0000 0000 0000 000000
2014-02-21 00:06:26,0.36,9.09,0.00,17.89,23.07,25.92,6.20,33.71,1018.08,2053.00,1330.42,1687.39,1831.90,350.20,330.22,31.86,0000 0000 0000 0000 000000
2014-02-21 00:07:26,0.67,9.10,0.00,17.89,23.08,25.91,6.22,33.63,1018.09,2053.00,1330.13,1687.14,1831.40,350.05,330.18,31.87,0000 0000 0000 0000 000000
2014-02-21 00:08:27,0.51,9.10,0.00,17.90,23.09,25.88,6.22,33.79,1018.11,2053.00,1329.71,1686.94,1831.15,350.39,330.33,31.87,0000 0000 0000 0000 000000
2014-02-21 00:09:27,0.48,9.10,0.00,17.90,23.09,25.87,6.11,33.71,1018.16,2053.01,1329.27,1686.45,1830.95,349.33,329.51,31.88,0000 0000 0000 0000 000000
2014-02-21 00:10:27,0.63,9.11,0.00,17.91,23.09,25.91,6.17,33.83,1018.30,2053.00,1329.07,1686.16,1830.44,349.07,329.59,31.88,0000 0000 0000 0000 000000
2014-02-21 00:11:28,0.47,9.11,0.00,17.92,23.10,25.91,6.22,33.71,1018.50,2053.00,1328.63,1685.98,1830.16,350.70,330.89,31.89,0000 0000 0000 0000 000000
2014-02-21 00:12:28,0.48,9.11,0.00,17.92,23.11,25.91,6.27,33.75,1018.57,2053.00,1328.23,1685.51,1829.90,349.84,330.22,31.90,0000 0000 0000 0000 000000
2014-02-21 00:13:28,0.61,9.12,0.00,17.92,23.12,25.92,6.15,33.63,1018.57,2053.00,1328.08,1685.19,1829.39,349.77,329.59,31.90,0000 0000 0000 0000 000000
2014-02-21 00:14:28,0.49,9.12,0.00,17.94,23.12,25.93,6.17,33.54,1018.57,2053.00,1327.66,1685.04,1829.14,350.29,330.02,31.91,0000 0000 0000 0000 000000
2014-02-21 00:15:29,0.46,9.12,0.00,17.94,23.12,25.93,6.19,33.79,1018.57,2053.00,1327.25,1684.63,1828.84,350.03,330.07,31.91,0000 0000 0000 0000 000000
2014-02-21 00:16:29,0.56,9.12,0.00,17.94,23.13,25.96,6.07,33.54,1018.57,2053.00,1327.03,1684.23,1828.34,349.86,330.10,31.92,0000 0000 0000 0000 000000
2014-02-21 00:17:29,0.59,9.13,0.00,17.94,23.14,25.98,6.23,34.13,1018.57,2053.00,1326.48,1684.06,1828.12,350.44,330.80,31.92,0000 0000 0000 0000 000000
2014-02-21 00:18:29,0.49,9.13,0.00,17.95,23.14,25.95,6.07,33.79,1018.57,2053.00,1326.15,1683.73,1827.90,349.28,330.03,31.93,0000 0000 0000 0000 000000
2014-02-21 00:19:30,0.48,9.13,0.00,17.97,23.14,25.95,6.22,33.88,1018.57,2053.00,1325.82,1683.30,1827.40,349.67,329.89,31.94,0000 0000 0000 0000 000000
2014-02-21 00:20:30,0.63,9.14,0.00,17.97,23.14,25.94,6.16,34.04,1018.55,2053.00,1325.33,1683.10,1827.15,349.91,330.09,31.94,0000 0000 0000 0000 000000
2014-02-21 00:21:30,0.49,9.14,0.00,17.97,23.15,25.94,6.18,33.88,1018.50,2052.98,1325.12,1683.01,1826.98,349.56,329.76,31.95,0000 0000 0000 0000 000000
2014-02-21 00:22:30,0.28,9.14,0.00,17.98,23.17,25.94,6.08,33.75,1018.44,2052.99,1325.03,1682.63,1826.50,349.73,329.89,31.95,0000 0000 0000 0000 000000
2014-02-21 00:23:31,0.44,9.14,0.00,17.98,23.17,25.95,6.08,33.88,1018.42,2052.99,1324.65,1682.25,1826.18,349.75,329.87,31.96,0000 0000 0000 0000 000000
2014-02-21 00:24:31,0.55,9.15,0.00,17.99,23.17,25.97,6.19,33.83,1018.31,2052.98,1324.27,1682.08,1826.01,349.87,329.62,31.97,0000 0000 0000 0000 000000
2014-02-21 00:25:31,0.42,9.15,0.00,18.00,23.17,25.98,6.23,33.75,1018.18,2052.98,1324.09,1681.86,1825.51,349.55,329.89,31.97,0000 0000 0000 0000 000000
2014-02-21 00:26:32,0.40,9.15,0.00,18.00,23.18,25.97,6.19,33.71,1018.20,2052.97,1323.83,1681.37,1825.18,350.22,330.24,31.98,0000 0000 0000 0000 000000
2014-02-21 00:27:32,0.55,9.16,0.00,18.01,23.19,25.98,6.31,33.67,1018.18,2052.97,1323.37,1681.14,1825.02,349.61,329.66,31.98,0000 0000 0000 0000 000000
2014-02-21 00:28:32,0.50,9.16,0.00,18.02,23.19,25.97,6.10,33.92,1018.18,2052.98,1323.13,1681.02,1824.57,349.87,329.72,31.99,0000 0000 0000 0000 000000
2014-02-21 00:29:33,0.40,9.16,0.00,18.04,23.19,25.99,6.14,33.75,1018.22,2052.96,1322.81,1680.56,1824.21,349.57,329.60,32.00,0000 0000 0000 0000 000000
2014-02-21 00:30:33,0.52,9.16,0.83,18.04,23.20,26.02,6.14,34.00,1018.31,2052.94,1322.33,1680.20,1824.03,349.48,329.53,32.00,0000 0000 0000 0000 000000
2014-02-21 00:31:33,0.58,9.17,1.00,18.04,23.21,26.06,6.17,34.13,1018.39,2052.94,1322.11,1680.06,1823.55,350.38,330.41,32.01,0000 0000 0000 0000 000000
2014-02-21 00:32:33,0.45,9.17,1.00,18.04,23.22,26.02,6.09,33.58,1018.48,2052.88,1321.74,1679.63,1823.19,349.67,329.77,32.01,0000 0000 0000 0000 000000
2014-02-21 00:33:34,0.49,9.17,1.00,18.04,23.22,26.04,6.07,33.83,1018.50,2052.80,1321.28,1679.24,1823.03,349.71,329.81,32.02,0000 0000 0000 0000 000000
2014-02-21 00:34:34,0.50,9.18,1.00,18.04,23.22,26.02,6.14,33.63,1018.48,2052.81,1321.10,1679.07,1822.54,350.13,330.21,32.02,0000 0000 0000 0000 000000
2014-02-21 00:35:34,0.35,9.18,1.00,18.05,23.24,26.05,6.03,33.79,1018.48,2052.67,1320.74,1678.78,1822.19,349.81,329.90,32.03,0000 0000 0000 0000 000000
2014-02-21 00:36:35,0.36,9.18,1.00,18.07,23.24,26.04,6.14,33.75,1018.53,2052.49,1320.30,1678.30,1821.99,350.37,330.42,32.04,0000 0000 0000 0000 000000
2014-02-21 00:37:35,0.42,9.18,1.00,18.07,23.24,26.03,6.01,33.67,1018.53,2052.36,1320.02,1678.11,1821.50,348.86,329.00,32.04,0000 0000 0000 0000 000000
2014-02-21 00:38:35,0.34,9.18,1.00,18.09,23.24,26.07,6.04,33.71,1018.56,2052.33,1319.50,1677.96,1821.18,349.71,329.79,32.05,0000 0000 0000 0000 000000
2014-02-21 00:39:36,0.48,9.19,1.00,18.10,23.25,26.08,6.15,33.58,1018.56,2052.25,1319.18,1677.49,1821.04,350.06,329.85,32.05,0000 0000 0000 0000 000000
2014-02-21 00:40:36,0.41,9.19,1.00,18.10,23.27,26.08,6.38,34.00,1018.50,2052.22,1319.00,1677.18,1820.66,350.69,330.69,32.06,0000 0000 0000 0000 000000
2014-02-21 00:41:36,0.48,9.20,1.00,18.10,23.27,26.09,6.19,34.04,1018.49,2052.29,1318.50,1677.06,1820.27,350.21,330.22,32.07,0000 0000 0000 0000 000000
2014-02-21 00:42:36,0.49,9.20,1.00,18.12,23.27,26.08,6.25,33.96,1018.51,2052.19,1318.17,1676.85,1820.10,350.07,330.08,32.07,0000 0000 0000 0000 000000
2014-02-21 00:43:37,0.33,9.20,1.00,18.12,23.28,26.10,6.20,33.83,1018.54,2052.14,1318.03,1676.35,1819.94,350.33,330.37,32.08,0000 0000 0000 0000 000000
2014-02-21 00:44:37,0.40,9.20,1.00,18.12,23.29,26.09,6.16,33.67,1018.55,2052.07,1317.64,1676.12,1819.44,349.54,329.45,32.08,0000 0000 0000 0000 000000
2014-02-21 00:45:37,0.46,9.21,1.00,18.13,23.29,26.09,6.13,33.96,1018.56,2052.04,1317.26,1676.03,1819.16,350.83,330.48,32.09,0000 0000 0000 0000 000000
2014-02-21 00:46:38,0.35,9.21,1.00,18.14,23.29,26.11,5.93,33.75,1018.55,2052.04,1317.06,1675.72,1819.05,348.73,328.80,32.09,0000 0000 0000 0000 000000
2014-02-21 00:47:38,0.41,9.21,1.00,18.14,23.30,26.10,6.10,33.92,1018.55,2052.03,1316.66,1675.28,1818.60,350.14,330.31,32.10,0000 0000 0000 0000 000000
2014-02-21 00:48:38,0.61,9.21,1.00,18.14,23.31,26.11,6.17,33.63,1018.57,2052.01,1316.25,1675.10,1818.23,350.31,330.29,32.11,0000 0000 0000 0000 000000
2014-02-21 00:49:38,0.47,9.21,1.00,18.14,23.32,26.11,6.01,33.58,1018.57,2052.00,1316.06,1675.00,1818.07,349.82,330.13,32.11,0000 0000 0000 0000 000000
2014-02-21 00:50:39,0.28,9.22,1.00,18.14,23.32,26.09,6.11,33.63,1018.57,2052.02,1315.75,1674.57,1817.79,349.22,329.19,32.12,0000 0000 0000 0000 000000
2014-02-21 00:51:39,0.55,9.22,1.00,18.15,23.32,26.09,6.02,33.75,1018.57,2052.01,1315.33,1674.22,1817.34,349.76,329.76,32.12,0000 0000 0000 0000 000000
2014-02-21 00:52:39,0.62,9.22,1.00,18.17,23.33,26.11,6.12,34.04,1018.57,2052.00,1315.12,1674.07,1817.12,349.85,329.66,32.13,0000 0000 0000 0000 000000
2014-02-21 00:53:39,0.30,9.23,1.00,18.17,23.34,26.14,6.10,33.88,1018.57,2052.00,1314.96,1673.95,1817.02,350.98,330.60,32.14,0000 0000 0000 0000 000000
2014-02-21 00:54:40,0.32,9.23,1.00,18.18,23.34,26.15,6.20,33.83,1018.57,2052.01,1314.49,1673.51,1816.63,349.60,329.58,32.14,0000 0000 0000 0000 000000
2014-02-21 00:55:40,0.60,9.23,1.00,18.19,23.35,26.17,6.21,33.88,1018.57,2052.00,1314.18,1673.20,1816.23,350.95,330.59,32.15,0000 0000 0000 0000 000000
2014-02-21 00:56:40,0.52,9.23,1.00,18.20,23.35,26.15,6.00,33.79,1018.57,2052.00,1314.04,1673.07,1816.08,349.63,329.66,32.15,0000 0000 0000 0000 000000
2014-02-21 00:57:40,0.24,9.24,1.00,18.21,23.36,26.16,6.23,34.08,1018.57,2052.00,1313.76,1672.98,1815.92,349.71,329.65,32.16,0000 0000 0000 0000 000000
2014-02-21 00:58:41,0.37,9.24,1.00,18.21,23.37,26.15,6.17,33.75,1018.58,2052.00,1313.30,1672.56,1815.43,350.15,330.03,32.17,0000 0000 0000 0000 000000
2014-02-21 00:59:41,0.61,9.24,1.00,18.22,23.37,26.17,6.26,33.96,1018.58,2052.00,1313.10,1672.20,1815.15,350.46,330.49,32.17,0000 0000 0000 0000 000000
2014-02-21 01:00:41,0.45,9.24,0.00,18.22,23.37,26.16,6.19,33.67,1018.57,2052.00,1312.97,1672.07,1815.05,349.81,330.22,32.18,0000 0000 0000 0000 000000
2014-02-21 01:01:41,0.28,9.24,0.00,18.22,23.37,26.15,5.99,34.00,1018.58,2052.00,1312.47,1671.96,1814.71,349.22,329.35,32.18,0000 0000 0000 0000 000000
2014-02-21 01:02:42,0.45,9.25,0.00,18.23,23.38,26.16,6.29,34.13,1018.58,2052.00,1312.17,1671.58,1814.28,350.18,330.07,32.19,0000 0000 0000 0000 000000
2014-02-21 01:03:42,0.55,9.25,0.00,18.24,23.39,26.18,6.16,34.04,1018.58,2052.00,1312.06,1671.23,1814.10,350.52,330.17,32.19,0000 0000 0000 0000 000000
2014-02-21 01:04:42,0.36,9.25,0.00,18.26,23.39,26.19,6.05,33.92,1018.58,2052.00,1311.74,1671.08,1814.02,349.86,329.69,32.20,0000 0000 0000 0000 000000
2014-02-21 01:05:43,0.35,9.25,0.00,18.26,23.40,26.19,6.17,33.71,1018.61,2052.00,1311.29,1671.02,1813.66,349.79,329.47,32.21,0000 0000 0000 0000 000000
2014-02-21 01:06:43,0.45,9.26,0.00,18.27,23.41,26.16,6.24,33.75,1018.60,2052.00,1311.11,1670.69,1813.25,350.74,330.52,32.21,0000 0000 0000 0000 000000
2014-02-21 01:07:43,0.45,9.26,0.00,18.27,23.42,26.19,6.10,33.63,1018.61,2052.00,1310.95,1670.28,1813.09,349.63,329.74,32.22,0000 0000 0000 0000 000000
2014-02-21 01:08:43,0.44,9.26,0.00,18.29,23.42,26.23,6.17,33.54,1018.59,2052.00,1310.52,1670.09,1812.89,349.62,329.42,32.22,0000 0000 0000 0000 000000
2014-02-21 01:09:44,0.45,9.26,0.00,18.29,23.42,26.24,6.08,33.58,1018.58,2052.00,1310.19,1670.02,1812.39,348.99,328.88,32.23,0000 0000 0000 0000 000000
2014-02-21 01:10:44,0.42,9.27,0.00,18.29,23.43,26.23,6.16,33.50,1018.63,2052.00,1310.06,1669.65,1812.14,350.19,330.02,32.24,0000 0000 0000 0000 000000
2014-02-21 01:11:44,0.36,9.27,0.00,18.30,23.44,26.22,6.07,33.63,1018.66,2051.98,1309.75,1669.26,1812.04,348.97,329.00,32.24,0000 0000 0000 0000 000000
2014-02-21 01:12:44,0.48,9.27,0.00,18.32,23.44,26.23,6.19,33.58,1018.70,2051.97,1309.29,1669.09,1811.78,350.73,330.53,32.25,0000 0000 0000 0000 000000
2014-02-21 01:13:45,0.47,9.28,0.00,18.33,23.45,26.22,6.18,33.67,1018.63,2051.94,1309.11,1669.02,1811.33,349.94,329.75,32.25,0000 0000 0000 0000 000000
2014-02-21 01:14:45,0.32,9.28,0.00,18.34,23.46,26.22,6.12,33.71,1018.59,2051.94,1309.00,1668.69,1811.12,349.29,329.11,32.26,0000 0000 0000 0000 000000
2014-02-21 01:15:45,0.35,9.28,0.00,18.34,23.47,26.25,6.14,33.67,1018.60,2051.97,1308.60,1668.29,1810.97,350.25,330.01,32.26,0000 0000 0000 0000 000000
2014-02-21 01:16:46,0.55,9.28,0.00,18.36,23.47,26.26,6.07,33.79,1018.60,2051.92,1308.22,1668.10,1810.54,349.99,329.75,32.27,0000 0000 0000 0000 000000
2014-02-21 01:17:46,0.47,9.29,0.00,18.37,23.47,26.31,6.06,33.88,1018.66,2051.83,1308.08,1668.02,1810.20,349.32,329.34,32.28,0000 0000 0000 0000 000000
2014-02-21 01:18:46,0.11,9.29,0.00,18.37,23.48,26.30,6.17,33.50,1018.67,2051.80,1307.84,1667.80,1810.07,350.51,330.26,32.28,0000 0000 0000 0000 000000
2014-02-21 01:19:47,0.44,9.29,0.00,18.37,23.49,26.29,6.19,33.79,1018.74,2051.80,1307.37,1667.35,1809.89,349.92,329.80,32.29,0000 0000 0000 0000 000000
2014-02-21 01:20:47,0.54,9.29,0.00,18.38,23.49,26.28,6.09,33.83,1018.76,2051.64,1307.13,1667.13,1809.44,349.91,329.99,32.29,0000 0000 0000 0000 000000
2014-02-21 01:21:47,0.18,9.29,0.00,18.39,23.50,26.26,6.18,33.71,1018.73,2051.45,1306.99,1667.01,1809.17,349.16,328.98,32.30,0000 0000 0000 0000 000000
2014-02-21 01:22:48,0.07,9.29,0.00,18.39,23.50,26.29,6.12,33.63,1018.84,2051.30,1306.56,1666.73,1809.03,350.49,330.27,32.31,0000 0000 0000 0000 000000
2014-02-21 01:23:48,0.38,9.30,0.00,18.40,23.51,26.29,6.06,33.58,1018.91,2051.26,1306.23,1666.32,1808.81,349.33,328.63,32.31,0000 0000 0000 0000 000000
2014-02-21 01:24:48,0.43,9.30,0.00,18.42,23.52,26.27,6.13,33.58,1018.97,2051.24,1306.06,1666.12,1808.39,349.51,329.75,32.32,0000 0000 0000 0000 000000
2014-02-21 01:25:48,0.32,9.30,0.00,18.42,23.52,26.29,6.10,33.46,1019.01,2051.17,1305.79,1666.04,1808.14,350.05,329.88,32.32,0000 0000 0000 0000 000000
2014-02-21 01:26:49,0.30,9.30,0.00,18.43,23.52,26.32,6.12,33.79,1019.04,2051.14,1305.33,1665.87,1808.02,349.05,328.83,32.33,0000 0000 0000 0000 000000
2014-02-21 01:27:49,0.45,9.31,0.00,18.44,23.53,26.30,6.14,33.58,1019.05,2051.15,1305.13,1665.42,1807.73,350.43,330.23,32.34,0000 0000 0000 0000 000000
2014-02-21 01:28:49,0.47,9.31,0.00,18.44,23.54,26.33,6.08,34.00,1019.05,2051.13,1305.04,1665.16,1807.33,348.95,328.83,32.34,0000 0000 0000 0000 000000
2014-02-21 01:29:49,0.30,9.31,0.00,18.44,23.55,26.34,6.16,33.88,1019.05,2051.07,1304.71,1665.05,1807.12,349.21,329.07,32.35,0000 0000 0000 0000 000000
2014-02-21 01:30:50,0.31,9.31,0.00,18.46,23.55,26.34,6.11,33.92,1019.02,2051.05,1304.27,1664.80,1806.93,349.30,328.90,32.35,0000 0000 0000 0000 000000
2014-02-21 01:31:50,0.51,9.32,0.00,18.47,23.55,26.33,6.24,34.08,1018.96,2051.04,1304.10,1664.39,1806.45,351.50,330.95,32.36,0000 0000 0000 0000 000000
2014-02-21 01:32:50,0.47,9.32,0.00,18.47,23.57,26.33,6.27,33.71,1018.81,2051.02,1303.98,1664.14,1806.17,350.49,330.27,32.36,0000 0000 0000 0000 000000
2014-02-21 01:33:50,0.33,9.32,0.00,18.47,23.57,26.37,6.06,33.63,1018.75,2051.01,1303.53,1664.04,1806.06,349.83,329.12,32.37,0000 0000 0000 0000 000000
2014-02-21 01:34:50,0.35,9.32,0.00,18.48,23.57,26.35,5.98,33.58,1018.78,2051.00,1303.19,1663.97,1805.91,350.10,329.96,32.38,0000 0000 0000 0000 000000
2014-02-21 01:35:51,0.34,9.32,0.00,18.49,23.58,26.33,6.12,33.75,1018.69,2051.00,1303.07,1663.56,1805.42,349.25,328.80,32.38,0000 0000 0000 0000 000000
2014-02-21 01:36:51,0.47,9.33,0.00,18.49,23.59,26.39,6.19,33.79,1018.66,2051.00,1302.81,1663.20,1805.15,350.07,329.44,32.39,0000 0000 0000 0000 000000
2014-02-21 01:37:51,0.52,9.33,0.00,18.51,23.60,26.39,6.25,33.79,1018.62,2051.00,1302.32,1663.07,1805.04,350.71,329.82,32.39,0000 0000 0000 0000 000000
2014-02-21 01:38:52,0.38,9.33,0.00,18.52,23.60,26.39,6.08,33.46,1018.64,2051.00,1302.12,1663.01,1804.71,350.36,329.93,32.40,0000 0000 0000 0000 000000
2014-02-21 01:39:52,0.30,9.33,0.00,18.52,23.61,26.40,6.14,33.67,1018.66,2051.00,1301.97,1662.71,1804.28,349.09,328.75,32.41,0000 0000 0000 0000 000000
2014-02-21 01:40:52,0.47,9.34,0.00,18.52,23.62,26.40,6.08,33.58,1018.66,2051.00,1301.52,1662.29,1804.08,349.58,329.21,32.41,0000 0000 0000 0000 000000
2014-02-21 01:41:52,0.57,9.34,0.00,18.52,23.62,26.42,6.12,33.63,1018.71,2051.00,1301.19,1662.10,1803.99,349.91,329.48,32.42,0000 0000 0000 0000 000000
2014-02-21 01:42:52,0.37,9.34,0.00,18.53,23.62,26.42,6.08,33.75,1018.85,2051.00,1301.06,1662.04,1803.61,350.27,329.96,32.42,0000 0000 0000 0000 000000
2014-02-21 01:43:52,0.26,9.34,0.00,18.54,23.63,26.39,6.01,33.88,1018.97,2051.00,1300.87,1661.89,1803.23,349.42,329.10,32.43,0000 0000 0000 0000 000000
2014-02-21 01:44:53,0.43,9.35,0.00,18.55,23.64,26.41,6.00,33.46,1019.03,2051.00,1300.38,1661.39,1803.07,349.62,329.33,32.43,0000 0000 0000 0000 000000
2014-02-21 01:45:53,0.57,9.35,0.00,18.56,23.65,26.45,6.31,33.71,1019.05,2051.00,1300.14,1661.14,1802.90,350.16,329.83,32.44,0000 0000 0000 0000 000000
2014-02-21 01:46:53,0.42,9.35,0.00,18.57,23.65,26.42,6.11,33.46,1019.06,2051.00,1300.02,1661.02,1802.42,350.43,330.02,32.45,0000 0000 0000 0000 000000
2014-02-21 01:47:53,0.28,9.35,0.00,18.57,23.66,26.43,6.27,33.71,1019.06,2051.00,1299.66,1660.89,1802.15,350.75,330.38,32.45,0000 0000 0000 0000 000000
2014-02-21 01:48:54,0.42,9.36,0.00,18.59,23.67,26.44,6.15,33.38,1019.06,2050.99,1299.28,1660.46,1802.04,350.06,329.70,32.46,0000 0000 0000 0000 000000
2014-02-21 01:49:54,0.52,9.36,0.00,18.59,23.67,26.46,6.03,33.88,1019.05,2050.99,1299.09,1660.18,1801.74,349.49,329.16,32.46,0000 0000 0000 0000 000000
2014-02-21 01:50:54,0.44,9.36,0.00,18.60,23.67,26.46,6.19,33.75,1019.05,2050.99,1298.88,1660.05,1801.32,349.58,329.16,32.47,0000 0000 0000 0000 000000
2014-02-21 01:51:54,0.40,9.36,0.00,18.61,23.68,26.48,6.18,33.75,1019.05,2050.99,1298.38,1659.91,1801.11,349.69,329.34,32.48,0000 0000 0000 0000 000000
2014-02-21 01:52:55,0.46,9.37,0.00,18.62,23.69,26.49,6.19,33.79,1019.05,2050.99,1298.13,1659.46,1801.01,349.96,329.58,32.48,0000 0000 0000 0000 000000
2014-02-21 01:53:55,0.45,9.37,0.00,18.62,23.70,26.50,6.07,33.88,1019.06,2050.97,1298.04,1659.18,1800.70,350.26,329.86,32.49,0000 0000 0000 0000 000000
2014-02-21 01:54:55,0.36,9.37,0.00,18.63,23.70,26.50,6.05,33.71,1019.06,2050.96,1297.98,1659.06,1800.29,348.78,328.39,32.49,0000 0000 0000 0000 000000
2014-02-21 01:55:55,0.21,9.37,0.00,18.64,23.72,26.50,6.23,33.75,1019.06,2050.95,1297.58,1659.00,1800.10,350.67,329.83,32.50,0000 0000 0000 0000 000000
2014-02-21 01:56:56,0.35,9.38,0.00,18.64,23.72,26.50,6.10,33.46,1019.06,2050.95,1297.23,1658.57,1799.96,349.71,329.60,32.50,0000 0000 0000 0000 000000
2014-02-21 01:57:56,0.57,9.38,0.00,18.65,23.72,26.50,5.99,33.42,1019.06,2050.96,1297.07,1658.24,1799.62,350.18,330.00,32.51,0000 0000 0000 0000 000000
2014-02-21 01:58:56,0.43,9.38,0.00,18.67,23.73,26.53,6.12,33.54,1019.06,2050.91,1296.98,1658.08,1799.22,348.55,328.26,32.52,0000 0000 0000 0000 000000
2014-02-21 01:59:57,0.19,9.38,0.00,18.67,23.74,26.53,6.32,33.58,1019.06,2050.86,1296.55,1657.97,1799.08,351.10,330.41,32.52,0000 0000 0000 0000 000000
2014-02-21 02:00:57,0.32,9.38,0.00,18.67,23.75,26.51,6.30,33.67,1019.06,2050.75,1296.20,1657.63,1798.80,350.37,329.95,32.53,0000 0000 0000 0000 000000
2014-02-21 02:01:58,0.43,9.39,0.00,18.67,23.75,26.51,6.19,33.67,1019.06,2050.57,1296.07,1657.25,1798.33,350.80,329.88,32.53,0000 0000 0000 0000 000000
2014-02-21 02:02:58,0.27,9.39,0.00,18.67,23.75,26.55,6.31,33.92,1019.06,2050.40,1295.98,1657.09,1798.12,350.31,329.85,32.54,0000 0000 0000 0000 000000
2014-02-21 02:03:58,-0.03,9.39,0.00,18.68,23.77,26.54,6.14,33.79,1019.07,2050.24,1295.60,1657.01,1797.95,349.69,329.24,32.55,0000 0000 0000 0000 000000
2014-02-21 02:04:58,0.25,9.39,0.00,18.69,23.77,26.57,6.14,33.58,1019.07,2050.15,1295.22,1656.70,1797.48,350.94,330.43,32.55,0000 0000 0000 0000 000000
2014-02-21 02:05:59,0.49,9.39,0.00,18.70,23.77,26.56,6.12,33.33,1019.08,2050.09,1295.04,1656.29,1797.18,350.88,329.89,32.56,0000 0000 0000 0000 000000
2014-02-21 02:06:59,0.38,9.39,0.00,18.72,23.78,26.58,6.26,33.88,1019.11,2050.08,1294.69,1656.10,1797.05,350.83,330.43,32.56,0000 0000 0000 0000 000000
2014-02-21 02:07:59,0.41,9.40,0.00,18.72,23.79,26.57,6.06,33.42,1019.32,2050.07,1294.28,1655.99,1796.73,349.93,329.55,32.57,0000 0000 0000 0000 000000
2014-02-21 02:08:59,0.40,9.40,0.00,18.72,23.80,26.59,6.02,33.58,1019.43,2050.02,1294.10,1655.63,1796.30,348.31,328.01,32.58,0000 0000 0000 0000 000000
2014-02-21 02:09:59,0.47,9.40,0.00,18.74,23.80,26.61,6.08,33.54,1019.42,2050.00,1294.00,1655.24,1796.10,349.38,328.92,32.58,0000 0000 0000 0000 000000
2014-02-21 02:11:00,0.32,9.40,0.00,18.74,23.81,26.64,6.19,33.63,1019.42,2050.00,1293.68,1655.08,1795.96,350.82,330.61,32.59,0000 0000 0000 0000 000000
2014-02-21 02:12:00,0.40,9.41,0.00,18.74,23.82,26.62,6.24,33.58,1019.40,2050.00,1293.28,1654.93,1795.50,350.01,329.29,32.59,0000 0000 0000 0000 000000
2014-02-21 02:13:00,0.49,9.41,0.00,18.74,23.82,26.65,6.12,33.54,1019.43,2050.00,1293.10,1654.47,1795.18,350.36,329.69,32.60,0000 0000 0000 0000 000000
2014-02-21 02:14:01,0.51,9.41,0.00,18.75,23.83,26.65,6.08,33.54,1019.40,2050.00,1292.92,1654.18,1795.03,349.02,328.53,32.60,0000 0000 0000 0000 000000
2014-02-21 02:15:01,0.36,9.41,0.00,18.76,23.84,26.66,6.22,33.67,1019.47,2050.00,1292.41,1654.06,1794.60,351.31,331.11,32.61,0000 0000 0000 0000 000000
2014-02-21 02:16:01,0.56,9.42,0.00,18.77,23.84,26.63,6.25,33.88,1019.53,2049.98,1292.15,1653.86,1794.23,350.38,330.00,32.62,0000 0000 0000 0000 000000
2014-02-21 02:17:01,0.42,9.42,0.00,18.78,23.85,26.67,6.33,33.58,1019.53,2049.99,1292.00,1653.41,1794.08,350.40,329.86,32.62,0000 0000 0000 0000 000000
2014-02-21 02:18:02,0.43,9.42,0.00,18.79,23.86,26.70,6.14,33.67,1019.55,2049.99,1291.70,1653.15,1793.90,350.45,330.00,32.63,0000 0000 0000 0000 000000
2014-02-21 02:19:02,0.43,9.43,0.00,18.79,23.87,26.67,6.27,33.58,1019.55,2049.99,1291.28,1653.04,1793.41,351.08,330.82,32.63,0000 0000 0000 0000 000000
2014-02-21 02:20:02,0.49,9.43,0.00,18.80,23.87,26.65,6.20,33.63,1019.55,2049.99,1291.09,1652.87,1793.15,349.56,329.16,32.64,0000 0000 0000 0000 000000
2014-02-21 02:21:02,0.37,9.43,0.00,18.81,23.87,26.65,5.92,33.46,1019.55,2049.98,1290.86,1652.39,1792.98,349.74,329.33,32.65,0000 0000 0000 0000 000000
2014-02-21 02:22:03,0.48,9.43,0.00,18.80,23.89,26.69,6.17,33.50,1019.55,2049.98,1290.42,1652.14,1792.48,349.69,329.59,32.65,0000 0000 0000 0000 000000
2014-02-21 02:23:03,0.62,9.44,0.00,18.81,23.90,26.69,6.23,33.38,1019.55,2049.98,1290.15,1652.02,1792.17,349.62,329.20,32.66,0000 0000 0000 0000 000000
2014-02-21 02:24:03,0.35,9.44,0.00,18.82,23.90,26.68,6.20,33.58,1019.55,2049.96,1289.99,1651.66,1792.04,350.55,330.07,32.66,0000 0000 0000 0000 000000
2014-02-21 02:25:03,0.39,9.44,0.00,18.84,23.90,26.70,6.15,33.38,1019.55,2049.93,1289.54,1651.24,1791.83,348.95,328.55,32.67,0000 0000 0000 0000 000000
2014-02-21 02:26:04,0.57,9.44,0.00,18.83,23.92,26.66,6.02,33.50,1019.56,2049.92,1289.20,1651.08,1791.39,348.38,328.02,32.68,0000 0000 0000 0000 000000
2014-02-21 02:27:04,0.47,9.45,0.00,18.83,23.92,26.71,6.15,33.46,1019.57,2049.86,1289.06,1650.95,1791.14,350.21,329.74,32.68,0000 0000 0000 0000 000000
2014-02-21 02:28:04,0.17,9.45,0.00,18.84,23.92,26.69,6.06,33.38,1019.55,2049.78,1288.77,1650.52,1791.03,348.94,328.49,32.69,0000 0000 0000 0000 000000
2014-02-21 02:29:04,0.45,9.45,0.00,18.85,23.93,26.69,6.27,33.75,1019.56,2049.76,1288.31,1650.20,1790.64,350.55,330.05,32.69,0000 0000 0000 0000 000000
2014-02-21 02:30:05,0.61,9.45,0.00,18.87,23.94,26.72,6.05,33.58,1019.56,2049.59,1288.10,1650.06,1790.23,348.87,328.44,32.70,0000 0000 0000 0000 000000
2014-02-21 02:31:05,0.11,9.45,0.00,18.86,23.95,26.73,6.26,33.83,1019.56,2049.34,1287.83,1649.76,1790.08,350.02,329.24,32.70,0000 0000 0000 0000 000000
2014-02-21 02:32:05,0.15,9.46,0.00,18.86,23.95,26.74,6.15,33.46,1019.55,2049.22,1287.35,1649.31,1789.74,350.16,330.16,32.71,0000 0000 0000 0000 000000
2014-02-21 02:33:06,0.55,9.46,0.00,18.87,23.97,26.75,6.02,33.88,1019.56,2049.18,1287.13,1649.11,1789.29,349.20,328.59,32.72,0000 0000 0000 0000 000000
2014-02-21 02:34:06,0.37,9.46,0.00,18.87,23.97,26.75,6.22,33.54,1019.57,2049.14,1287.01,1649.02,1789.11,351.65,331.05,32.72,0000 0000 0000 0000 000000
2014-02-21 02:35:06,0.14,9.46,0.00,18.88,23.97,26.73,6.04,33.42,1019.58,2049.14,1286.56,1648.71,1788.94,349.91,329.41,32.73,0000 0000 0000 0000 000000
2014-02-21 02:36:06,0.63,9.47,0.00,18.89,23.98,26.75,6.08,33.63,1019.56,2049.11,1286.20,1648.29,1788.44,348.68,328.23,32.73,0000 0000 0000 0000 000000